Location: Unspecified
(42.9300°N, 71.1866°W)
Time: 06:21:36
(UTC-04:00)

Cosmos 1674 - Visible Passes

Search period start: 21 October 2014 00:00
Search period end: 31 October 2014 00:00
Orbit: 515 x 540 km, 82.5° (Epoch: 19 October)

Date Brightness Start Highest point End Pass type
(mag) Time Alt. Az. Time Alt. Az. Time Alt. Az.
21 Oct 3.8 05:56:38 10° SSE 06:00:25 49° E 06:04:16 10° NNE visible
22 Oct 4.0 05:45:21 10° SSE 05:49:06 44° E 05:52:53 10° NNE visible
23 Oct 4.2 05:34:04 10° SSE 05:37:46 40° E 05:41:30 10° NNE visible
24 Oct 4.4 05:22:47 10° SSE 05:26:25 36° E 05:30:05 10° NNE visible
25 Oct 4.6 05:11:30 10° SSE 05:15:04 33° E 05:18:39 10° NNE visible
26 Oct 4.7 05:00:14 10° SSE 05:03:42 30° E 05:07:11 10° NNE visible
26 Oct 4.1 06:36:47 10° WSW 06:39:42 20° WNW 06:42:38 10° NNW visible
27 Oct 4.8 04:48:57 10° SSE 04:52:19 28° E 04:55:43 10° NNE visible
27 Oct 4.0 06:25:12 10° WSW 06:28:16 21° WNW 06:31:21 10° NNW visible
28 Oct 5.0 04:37:40 10° SE 04:40:56 25° E 04:44:13 10° NNE visible
28 Oct 3.9 06:13:38 10° SW 06:16:49 23° WNW 06:20:02 10° NNW visible
29 Oct 5.1 04:28:22 20° ESE 04:29:32 23° E 04:32:41 10° NE visible
29 Oct 3.8 06:03:47 20° WSW 06:05:22 25° WNW 06:08:42 10° NNW visible
30 Oct 5.4 04:19:05 19° ENE 04:19:05 19° ENE 04:21:08 10° NE visible
30 Oct 3.8 05:54:26 27° WNW 05:54:26 27° WNW 05:57:21 10° NNW visible
